Total_Precipitation_Accumulation
1.24 1.55 2.01 2.35 2.81 3.31 3.52 3.63 3.67 3.93 4.30 4.29 4.09 3.88 3.60 3.33 3.09 2.98 2.93 2.72 2.56 2.44 2.38 2.24 2.22 2.14 2.03 1.96 1.92 1.91 1.89 1.78 1.75 1.79 1.67 1.43 1.28 1.19 1.03 0.94 0.85 0.80 0.83
1.19 1.49 1.83 2.21 2.46 3.07 3.45 3.52 3.71 3.97 4.24 4.19 4.08 3.99 3.94 3.75 3.47 3.30 3.04 2.87 2.71 2.53 2.45 2.36 2.22 2.18 2.11 2.02 1.98 1.97 2.07 2.14 2.12 2.09 2.06 1.93 1.73 1.39 1.14 1.06 0.97 0.90 0.93
1.15 1.39 1.64 1.96 2.15 2.54 3.03 3.26 3.41 3.76 4.02 4.22 4.57 4.59 4.41 4.09 3.64 3.35 3.18 3.00 2.96 2.80 2.58 2.53 2.41 2.24 2.16 2.08 2.00 1.88 1.85 1.98 2.15 2.17 2.27 2.11 1.82 1.53 1.33 1.15 1.06 1.00 0.96
1.12 1.35 1.53 1.67 1.89 2.15 2.60 3.02 3.29 3.56 3.77 3.92 4.17 4.32 4.17 3.79 3.41 3.19 3.20 3.24 3.17 3.14 2.97 2.78 2.63 2.49 2.31 2.16 2.12 2.10 1.97 1.92 1.99 2.06 2.01 1.92 1.70 1.63 1.55 1.33 1.19 1.11 1.05
1.28 1.38 1.44 1.46 1.64 1.90 2.35 2.76 3.07 3.37 3.55 3.69 3.79 3.97 4.04 3.91 3.73 3.49 3.40 3.41 3.34 3.22 3.10 3.00 2.83 2.65 2.52 2.40 2.31 2.23 2.21 2.15 2.05 2.02 1.95 1.92 1.71 1.51 1.51 1.41 1.26 1.24 1.17
1.47 1.46 1.46 1.44 1.53 1.74 2.02 2.43 2.79 3.18 3.42 3.55 3.76 3.82 3.74 3.78 3.77 3.48 3.45 3.45 3.52 3.44 3.19 3.00 2.91 2.77 2.67 2.57 2.51 2.46 2.39 2.30 2.18 2.10 2.05 2.04 1.99 1.73 1.60 1.49 1.31 1.31 1.24
1.38 1.40 1.44 1.44 1.51 1.67 1.84 2.09 2.33 2.71 3.14 3.34 3.51 3.64 3.67 3.56 3.60 3.52 3.39 3.37 3.30 3.29 3.27 3.09 2.98 2.90 2.71 2.60 2.55 2.51 2.42 2.40 2.30 2.22 2.16 2.08 1.96 1.85 1.85 1.84 1.67 1.54 1.36
1.33 1.38 1.42 1.53 1.61 1.64 1.72 1.90 2.03 2.24 2.69 3.05 3.16 3.25 3.43 3.44 3.29 3.30 3.22 3.19 3.10 3.02 3.09 3.12 2.98 2.91 2.81 2.63 2.51 2.44 2.34 2.30 2.29 2.20 2.14 2.10 2.01 1.96 1.98 2.03 2.10 2.03 1.73
1.27 1.36 1.42 1.56 1.66 1.64 1.65 1.76 1.88 1.94 2.21 2.65 2.91 3.04 3.11 3.09 2.90 2.82 2.81 2.83 2.89 2.89 2.91 2.97 2.89 2.81 2.73 2.60 2.48 2.38 2.27 2.18 2.14 2.08 2.04 1.99 1.92 1.93 1.92 1.96 2.12 2.36 2.22
1.27 1.40 1.46 1.48 1.57 1.62 1.66 1.73 1.73 1.78 1.89 2.13 2.45 2.77 2.93 2.86 2.81 2.71 2.53 2.45 2.45 2.50 2.61 2.73 2.71 2.69 2.64 2.55 2.41 2.26 2.19 2.17 2.04 1.99 1.96 1.87 1.78 1.82 1.91 1.96 1.99 2.14 2.26
1.35 1.49 1.54 1.55 1.56 1.58 1.67 1.73 1.66 1.63 1.69 1.83 1.99 2.22 2.58 2.68 2.68 2.65 2.43 2.29 2.19 2.16 2.21 2.23 2.31 2.37 2.41 2.40 2.32 2.16 2.08 2.07 1.99 1.94 1.95 1.88 1.78 1.77 1.76 1.82 1.85 1.88 1.98
1.23 1.37 1.46 1.50 1.57 1.62 1.70 1.79 1.75 1.67 1.61 1.65 1.72 1.85 2.12 2.38 2.49 2.61 2.48 2.29 2.18 2.07 2.05 2.02 2.03 2.04 2.04 2.10 2.11 1.99 1.91 1.89 1.84 1.78 1.82 1.82 1.78 1.78 1.71 1.70 1.69 1.64 1.60
1.08 1.15 1.24 1.37 1.51 1.63 1.68 1.78 1.80 1.71 1.59 1.54 1.54 1.67 1.83 2.02 2.15 2.23 2.34 2.26 2.23 2.11 2.00 1.95 1.92 1.89 1.88 1.89 1.90 1.91 1.81 1.76 1.71 1.65 1.65 1.67 1.71 1.69 1.60 1.55 1.52 1.49 1.48
1.00 1.02 1.10 1.21 1.33 1.49 1.59 1.64 1.70 1.69 1.62 1.51 1.42 1.49 1.59 1.75 1.88 1.91 2.04 2.08 2.11 2.14 2.01 1.86 1.80 1.76 1.76 1.81 1.83 1.89 1.87 1.77 1.70 1.66 1.61 1.55 1.55 1.50 1.45 1.45 1.45 1.52 1.63
0.96 1.02 1.05 1.08 1.16 1.27 1.35 1.42 1.49 1.51 1.53 1.49 1.41 1.40 1.40 1.49 1.60 1.63 1.73 1.83 1.89 2.01 2.02 1.91 1.84 1.78 1.75 1.79 1.82 1.85 1.86 1.81 1.75 1.66 1.57 1.50 1.51 1.49 1.45 1.48 1.50 1.58 1.76
0.94 0.99 1.00 0.99 0.99 1.07 1.17 1.21 1.31 1.37 1.42 1.41 1.41 1.37 1.35 1.37 1.45 1.46 1.50 1.57 1.69 1.81 1.92 1.94 1.90 1.85 1.81 2.02 2.01 1.89 1.84 1.83 1.78 1.71 1.57 1.49 1.51 1.46 1.49 1.53 1.60 1.76 1.95
0.84 0.87 0.90 0.95 0.98 1.01 1.03 1.08 1.16 1.21 1.28 1.31 1.32 1.37 1.41 1.40 1.43 1.43 1.43 1.50 1.60 1.72 1.82 1.89 1.93 1.94 1.98 2.05 1.88 1.92 1.81 1.77 1.73 1.66 1.60 1.52 1.43 1.44 1.30 1.40 1.53 1.60 1.74
0.82 0.86 0.87 0.88 0.90 0.93 0.94 0.95 0.98 1.06 1.14 1.19 1.23 1.27 1.35 1.39 1.37 1.40 1.41 1.47 1.55 1.65 1.75 1.82 1.80 1.79 1.86 1.92 1.78 1.78 1.70 1.72 1.70 1.61 1.54 1.53 1.49 1.46 1.50 1.54 1.59 1.42 1.32
0.80 0.88 0.90 0.89 0.85 0.83 0.87 0.89 0.92 0.95 1.02 1.13 1.24 1.28 1.34 1.38 1.39 1.44 1.45 1.47 1.54 1.61 1.61 1.65 1.67 1.66 1.71 1.75 1.67 1.66 1.56 1.62 1.58 1.51 1.47 1.46 1.41 1.62 1.80 1.81 1.79 1.54 1.29
0.71 0.78 0.81 0.82 0.82 0.85 0.89 0.93 0.97 0.99 1.06 1.17 1.27 1.30 1.34 1.43 1.45 1.45 1.46 1.45 1.50 1.58 1.53 1.49 1.48 1.48 1.50 1.59 1.55 1.54 1.47 1.51 1.47 1.45 1.44 1.54 1.51 1.68 1.81 1.73 1.80 1.72 1.42
0.70 0.71 0.72 0.78 0.92 0.98 0.99 1.01 1.03 1.11 1.18 1.21 1.26 1.29 1.27 1.34 1.39 1.36 1.35 1.40 1.43 1.44 1.38 1.33 1.31 1.31 1.37 1.45 1.41 1.43 1.41 1.46 1.45 1.41 1.35 1.33 1.58 1.70 1.76 1.66 1.51 1.61 1.65
0.68 0.66 0.67 0.73 0.80 0.92 1.02 1.07 1.12 1.14 1.11 1.12 1.19 1.30 1.30 1.28 1.30 1.32 1.32 1.35 1.34 1.31 1.26 1.21 1.20 1.17 1.22 1.32 1.34 1.39 1.45 1.54 1.46 1.32 1.21 1.27 1.52 1.55 1.60 1.55 1.58 1.76 1.76
0.67 0.65 0.66 0.67 0.66 0.73 0.87 1.04 1.14 1.17 1.16 1.13 1.18 1.25 1.27 1.27 1.31 1.29 1.30 1.30 1.26 1.21 1.17 1.12 1.09 1.08 1.08 1.19 1.33 1.37 1.46 1.52 1.43 1.32 1.37 1.40 1.45 1.42 1.43 1.57 1.71 1.67 1.54
0.61 0.63 0.62 0.60 0.62 0.66 0.72 0.85 0.96 1.05 1.12 1.16 1.17 1.19 1.24 1.26 1.25 1.24 1.26 1.29 1.31 1.27 1.18 1.12 1.09 1.04 1.01 1.06 1.14 1.25 1.33 1.37 1.39 1.40 1.41 1.36 1.35 1.37 1.44 1.56 1.57 1.51 1.57
0.60 0.62 0.62 0.59 0.61 0.61 0.65 0.69 0.75 0.85 0.93 1.02 1.07 1.09 1.13 1.20 1.22 1.21 1.26 1.32 1.35 1.43 1.45 1.35 1.24 1.20 1.17 1.16 1.31 1.37 1.36 1.37 1.41 1.44 1.38 1.33 1.33 1.37 1.35 1.39 1.43 1.51 1.65
0.59 0.58 0.56 0.54 0.58 0.59 0.62 0.65 0.68 0.76 0.82 0.88 0.93 0.97 1.02 1.07 1.10 1.11 1.16 1.25 1.29 1.35 1.37 1.39 1.38 1.30 1.30 1.31 1.32 1.33 1.41 1.50 1.55 1.54 1.48 1.39 1.35 1.36 1.35 1.37 1.42 1.47 1.61